Regional Weather Roundup
Issued by NWS

Home | Current Version | Previous Version | Graphics & Text | Print | Product List | Glossary On
Versions: 1 2 3 4 5 6 7 8 9 10 11 12 13 14 15 16 17 18 19 20 21 22 23 24 25 26 27
000
ASUS45 KBOU 290107
RWRCO

WEATHER ROUNDUP FOR COLORADO
NATIONAL WEATHER SERVICE DENVER/BOULDER CO
700 PM MDT THU JUL 28 2016

NOTE: "FAIR" INDICATES FEW OR NO CLOUDS BELOW 12000 FEET WITH NO
SIGNIFICANT WEATHER AND/OR OBSTRUCTIONS TO VISIBILITY.

COZ001>005-013-030-031-290200-
...NORTHWEST COLORADO...

CITY           SKY/WX    TMP DP  RH WIND       PRES   REMARKS
CRAIG          FAIR      87  26  11 W12       30.13F
HAYDEN         FAIR      82  34  17 W6        30.17F
MEEKER         FAIR      90  30  11 N9        30.15S
MOUNT WERNER   NOT AVBL
STEAMBOAT SPGS FAIR      83  37  19 CALM      30.20F
WALDEN         FAIR      73  32  21 NE10      30.33S
$$

COZ006>008-011-290200-
...WEST CENTRAL VALLEYS...

CITY           SKY/WX    TMP DP  RH WIND       PRES   REMARKS
GRAND JUNCTION FAIR      99  25   7 N14       29.99F
MONTROSE       FAIR      89  35  14 SW9       30.10S
EAGLE          FAIR      90  27  10 W15G21    30.17S
RIFLE          FAIR      96  25   8 NW13      30.04F
DELTA          NOT AVBL
NUCLA          NOT AVBL
$$

COZ017>023-064>068-290200-
...SOUTHWEST COLORADO...

CITY           SKY/WX    TMP DP  RH WIND       PRES   REMARKS
DURANGO        FAIR      89  30  12 NW14      30.18F
CORTEZ         FAIR      91  35  13 E9        30.11F
PAGOSA SPRINGS FAIR      85  20   9 W7        30.29S
TELLURIDE      FAIR      79  26  14 CALM      30.44F
WOLF CREEK PAS PTSUNNY   61  34  36 SW13G20   30.70F
$$

COZ009-010-012-014-032>034-037-058>063-290200-
...CENTRAL COLORADO...

CITY           SKY/WX    TMP DP  RH WIND       PRES   REMARKS
ASPEN          FAIR      83  28  13 W5        30.28F
BUENA VISTA    FAIR      81  22  11 W31G37    30.30R
COPPER MTN     FAIR      64  16  15 NW9G22    30.69R
BERTHOUD PASS  FAIR      55  39  54 MISG      30.71R
COTTONWOOD PAS FAIR      73  10   9 SW24G44   30.50R
GUNNISON       FAIR      82  27  13 N10       30.30S
KREMMLING      FAIR      82  18   9 N7G17     30.26F
LEADVILLE      FAIR      72  21  14 N12       30.48R
MONARCH PASS   PTSUNNY   64  23  20 MISG      30.78S
SALIDA         FAIR      83  34  17 SE8       30.32R
SUNLIGHT       NOT AVBL
WILKERSON PASS FAIR      63  36  36 NE5       30.65S
$$

COZ069>075-290200-
...SAN LUIS VALLEY/SANGRE DE CRISTO MOUNTAINS...

CITY           SKY/WX    TMP DP  RH WIND       PRES   REMARKS
ALAMOSA        FAIR      83  37  19 SW10      30.23F
LA VETA PASS   FAIR      64  32  29 E5        30.52F
SAGUACHE       FAIR      86  25  10 NW18      30.28S
$$

COZ035-036-038>040-290200-
...NORTHERN COLORADO FRONT RANGE...

CITY           SKY/WX    TMP DP  RH WIND       PRES   REMARKS
DENVER INTL AP FAIR      77  57  50 NE18G26   30.18R
DMNS CITY PARK   N/A     78  55  44 NE10G20   30.18S
AURORA         NOT AVBL
FRONT RANGE AP NOT AVBL
ERIE MUNI ARPT PTSUNNY   77  55  46 NE10G18   30.19R
BOULDER MUN AP PTSUNNY   79  55  44 NE9       30.19R
CENTENNIAL     FAIR      79  53  40 NE10      30.20R
BROOMFIELD     NOT AVBL
LONGMONT       NOT AVBL
$$

COZ041-046-047-076>085-087-088-290200-
...PIKES PEAK/PALMER DIVIDE AND SOUTHERN FOOTHILLS...

CITY           SKY/WX    TMP DP  RH WIND       PRES   REMARKS
COLO. SPRINGS  PTSUNNY   82  53  36 VRB3      30.19F
A. F. ACADEMY  NOT AVBL
SCHRIEVER AFB  NOT AVBL
ELLICOTT       NOT AVBL
FALCON         NOT AVBL
FORT CARSON    FAIR      74  58  56 N12       30.14F
LIMON          FAIR      79  60  52 NE23G30   30.14F
MONUMENT HILL  FAIR      73  54  49 NE10      30.30R
TRINIDAD       NOT AVBL
$$

COZ042>045-048>051-090-091-290200-
...NORTHEAST COLORADO...

CITY           SKY/WX    TMP DP  RH WIND       PRES   REMARKS
GREELEY ARPT   PTSUNNY   73  57  56 E7        30.19R
AKRON          FAIR      73  58  59 E8        30.19R
BURLINGTON     FAIR      75  63  66 NE20      30.13R
WRAY           NOT AVBL
STERLING       NOT AVBL
HOLYOKE        NOT AVBL
FORT MORGAN    NOT AVBL
$$

COZ086-089-092>099-290200-
...SOUTHEAST COLORADO...

CITY           SKY/WX    TMP DP  RH WIND       PRES   REMARKS
PUEBLO         FAIR      91  44  19 NE22G37   30.02R
LA JUNTA       FAIR      89  55  31 S16       29.99S
LAMAR          FAIR      89  54  30 S10       29.97R
SPRINGFIELD      N/A     80  58  46 S18G29    30.03F
$$




USA.gov is the U.S. government's official web portal to all federal, state and local government web resources and services.